Hourly Data Report for July 07, 2021

WINNIPEG A CS
MANITOBA
Current Station Operator: ECCC - MSC

49°55'00.000" N
97°14'58.000" W
238.70 m
502S001
71849
XWG

Download Data

Hourly Data (July 2021)
Hourly Data Report for July 7, 2021
TIME
LST
Temp Definition
°C
Dew Point Definition
°C
Rel Hum Definition
%
Precip. Amount Definition
mm

Wind Dir Definition
10's deg

Wind Spd Definition
km/h
Visibility Definition
km
Stn Press Definition
kPa
Hmdx Definition


Wind Chill Definition


Weather Definition


00:00 7.8 5.4 85 0.0 30 11   99.28     LegendNANA
01:00 7.8 6.0 88 0.0 31 8   99.27     LegendNANA
02:00 8.4 6.2 86 0.0 29 9   99.24     LegendNANA
03:00 8.5 6.4 86 0.0 29 12   99.22     LegendNANA
04:00 7.4 5.5 88 0.0 31 6   99.19     LegendNANA
05:00 6.4 4.7 89 0.0 32 5   99.19     LegendNANA
06:00 7.2 5.5 89 0.0 30 6   99.20     LegendNANA
07:00 10.1 7.5 84 0.0 29 3   99.20     LegendNANA
08:00 14.5 8.2 66 0.0   0   99.19     LegendNANA
09:00 17.4 6.3 48 0.0 21 2   99.18     LegendNANA
10:00 19.1 3.1 35 0.0 32 4   99.14     LegendNANA
11:00 21.0 2.1 29 0.0 24 3   99.08     LegendNANA
12:00 22.1 2.1 27 0.0 28 5   99.00     LegendNANA
13:00 22.8 3.2 28 0.0 16 14   98.94     LegendNANA
14:00 23.4 2.0 25 0.0 15 6   98.87     LegendNANA
15:00 23.5 2.7 26 0.0 17 8   98.83     LegendNANA
16:00 23.3 2.8 26 0.0 22 12   98.80     LegendNANA
17:00 22.9 5.0 31 0.0 20 19   98.77     LegendNANA
18:00 22.1 5.7 35 0.0 22 16   98.74     LegendNANA
19:00 21.0 6.0 38 0.0 22 13   98.73     LegendNANA
20:00 19.1 6.7 45 0.0 22 9   98.72     LegendNANA
21:00 17.7 7.5 51 0.0 21 8   98.70     LegendNANA
22:00 16.5 8.0 57 0.0 21 9   98.73     LegendNANA
23:00 16.0 8.5 61 0.0 21 11   98.67     LegendNANA

Notes on Data Quality.

Legend

  • E = Estimated
  • M = Missing
  • NA = Not Available*
  • [empty] = Indicates an unobserved value
Date modified: